Find Starlink 36840

NORAD ID: 67850 Int'l Des: 2026-034 Owner: SPXS Country: US Constellation: starlink operational
LEOCIRCULAR

当前视图

正在加载3D地球...

关于 Starlink 36840

正在加载描述...

即将过境

Passes for default location (London). Set your location on the main map for personalized predictions.

高度历史

Loading altitude history...

两行轨道根数

1 67850U 26034A 26146.30712784 .00020834 00000-0 71339-3 0 9995
2 67850 53.1550 203.4224 0001010 14.6779 345.4251 15.30207564 15924
Epoch: May 26, 2026 • Age: 8 hours

当前状态

高度 480.2 km
速度 7.63 km/s
星下点 48.30°N, 141.78°E
发射日期 Feb 20, 2026
运行时间 0.2 years
类型 internet

技术详情

分类 Payload
质量 575.00 kg
干质量 530.00 kg
总质量 575.00 kg
长度 0.30 m
直径 4.10 m
跨度 29.00 m
形状 Box + pan
制造商 SPXS
平台类型 Starlink V2MO
阶段状态 In Orbit
所有者/国家 SPXS/US

Most Searched